QPF
0.00 0.00 0.00 0.00 0.00 0.00 0.00 0.00 0.00 0.00 0.00 0.00 0.00 0.00 0.00 0.00 0.00 0.00 0.00 0.00 0.00 0.00 0.00 0.00 0.00 0.00 0.00 0.00 0.00 0.00 0.00 0.00 0.00 0.00 0.00 0.00 0.00 0.00 0.00 0.00 0.00 0.00 0.00 0.00 0.00 0.00 0.00
0.00 0.00 0.00 0.00 0.00 0.00 0.00 0.00 0.00 0.00 0.00 0.00 0.00 0.00 0.00 0.00 0.00 0.00 0.00 0.00 0.00 0.00 0.00 0.00 0.00 0.00 0.00 0.00 0.00 0.00 0.00 0.00 0.00 0.00 0.00 0.00 0.00 0.00 0.00 0.00 0.00 0.00 0.00 0.00 0.00 0.00 0.00
0.00 0.00 0.00 0.00 0.00 0.00 0.00 0.00 0.00 0.00 0.00 0.00 0.00 0.00 0.00 0.00 0.00 0.00 0.00 0.00 0.00 0.00 0.00 0.00 0.00 0.00 0.00 0.00 0.00 0.00 0.00 0.00 0.00 0.00 0.00 0.01 0.00 0.00 0.00 0.00 0.00 0.00 0.00 0.00 0.00 0.00 0.00
0.00 0.00 0.00 0.00 0.00 0.00 0.00 0.00 0.00 0.00 0.00 0.00 0.00 0.00 0.00 0.00 0.00 0.00 0.00 0.00 0.00 0.00 0.00 0.00 0.00 0.00 0.00 0.00 0.00 0.00 0.00 0.00 0.00 0.00 0.00 0.01 0.01 0.00 0.00 0.01 0.01 0.00 0.00 0.01 0.00 0.00 0.00
0.00 0.00 0.00 0.00 0.00 0.00 0.00 0.00 0.00 0.00 0.00 0.00 0.00 0.00 0.00 0.00 0.00 0.00 0.00 0.00 0.00 0.00 0.00 0.00 0.00 0.00 0.00 0.00 0.00 0.00 0.00 0.00 0.00 0.00 0.00 0.00 0.00 0.00 0.00 0.00 0.00 0.00 0.00 0.00 0.02 0.01 0.00
0.00 0.00 0.00 0.00 0.00 0.00 0.00 0.00 0.00 0.00 0.00 0.00 0.00 0.00 0.00 0.00 0.00 0.00 0.00 0.00 0.00 0.00 0.00 0.00 0.00 0.00 0.00 0.00 0.00 0.00 0.00 0.00 0.00 0.00 0.00 0.00 0.00 0.00 0.00 0.00 0.00 0.02 0.01 0.01 0.01 0.00 0.00
0.00 0.00 0.00 0.00 0.00 0.00 0.00 0.00 0.00 0.00 0.00 0.00 0.00 0.00 0.00 0.00 0.00 0.00 0.00 0.00 0.00 0.00 0.00 0.00 0.00 0.00 0.00 0.00 0.00 0.00 0.00 0.00 0.00 0.00 0.00 0.00 0.00 0.00 0.00 0.00 0.00 0.01 0.02 0.01 0.01 0.02 0.00
0.00 0.00 0.00 0.00 0.00 0.00 0.00 0.00 0.00 0.00 0.00 0.00 0.00 0.00 0.00 0.00 0.00 0.00 0.00 0.00 0.00 0.00 0.00 0.00 0.00 0.00 0.00 0.00 0.00 0.00 0.00 0.00 0.00 0.00 0.00 0.00 0.00 0.00 0.00 0.00 0.00 0.00 0.00 0.00 0.00 0.01 0.00
0.00 0.00 0.00 0.00 0.00 0.00 0.00 0.00 0.00 0.00 0.00 0.00 0.00 0.00 0.00 0.00 0.00 0.00 0.00 0.00 0.00 0.00 0.00 0.00 0.00 0.00 0.00 0.00 0.00 0.00 0.00 0.00 0.00 0.00 0.00 0.00 0.00 0.00 0.00 0.00 0.00 0.00 0.00 0.00 0.00 0.00 0.00
0.00 0.00 0.00 0.00 0.00 0.00 0.00 0.00 0.00 0.00 0.00 0.00 0.00 0.00 0.00 0.00 0.00 0.00 0.00 0.00 0.00 0.00 0.00 0.00 0.00 0.00 0.00 0.00 0.00 0.00 0.00 0.00 0.00 0.00 0.00 0.00 0.00 0.00 0.00 0.00 0.00 0.00 0.00 0.00 0.00 0.00 0.00
0.00 0.00 0.00 0.00 0.00 0.00 0.00 0.00 0.00 0.00 0.00 0.00 0.00 0.00 0.00 0.00 0.00 0.00 0.00 0.00 0.00 0.00 0.00 0.00 0.00 0.00 0.00 0.00 0.00 0.00 0.00 0.00 0.00 0.00 0.00 0.00 0.00 0.00 0.00 0.00 0.00 0.00 0.00 0.00 0.00 0.00 0.00
0.00 0.00 0.00 0.00 0.00 0.00 0.00 0.00 0.00 0.00 0.00 0.00 0.00 0.00 0.00 0.00 0.00 0.00 0.00 0.00 0.00 0.00 0.00 0.00 0.00 0.00 0.00 0.00 0.00 0.00 0.00 0.00 0.00 0.00 0.00 0.00 0.00 0.00 0.00 0.00 0.00 0.00 0.00 0.00 0.00 0.00 0.00
0.00 0.00 0.00 0.00 0.00 0.00 0.00 0.00 0.00 0.00 0.00 0.00 0.00 0.00 0.00 0.00 0.00 0.00 0.00 0.00 0.00 0.00 0.00 0.00 0.00 0.00 0.00 0.00 0.00 0.00 0.00 0.00 0.00 0.00 0.00 0.00 0.00 0.00 0.00 0.00 0.00 0.00 0.00 0.00 0.00 0.00 0.00
0.00 0.00 0.00 0.00 0.00 0.00 0.00 0.00 0.00 0.00 0.00 0.00 0.00 0.00 0.00 0.00 0.00 0.00 0.00 0.00 0.00 0.00 0.00 0.00 0.00 0.00 0.00 0.00 0.00 0.00 0.00 0.00 0.00 0.00 0.00 0.00 0.00 0.00 0.00 0.00 0.00 0.00 0.00 0.00 0.00 0.00 0.00
0.00 0.00 0.01 0.00 0.00 0.00 0.00 0.00 0.00 0.00 0.00 0.00 0.00 0.00 0.00 0.00 0.00 0.00 0.00 0.00 0.00 0.00 0.00 0.00 0.00 0.00 0.00 0.00 0.00 0.00 0.00 0.00 0.00 0.00 0.00 0.00 0.00 0.00 0.00 0.00 0.00 0.00 0.00 0.00 0.00 0.00 0.00
0.00 0.00 0.00 0.00 0.00 0.00 0.00 0.00 0.00 0.00 0.00 0.00 0.00 0.00 0.00 0.00 0.00 0.00 0.00 0.00 0.00 0.00 0.00 0.00 0.00 0.00 0.00 0.00 0.00 0.00 0.00 0.00 0.00 0.00 0.00 0.00 0.00 0.00 0.00 0.00 0.00 0.00 0.00 0.00 0.00 0.00 0.00
0.00 0.00 0.00 0.00 0.00 0.00 0.00 0.00 0.00 0.00 0.00 0.00 0.00 0.00 0.00 0.00 0.00 0.00 0.00 0.00 0.00 0.00 0.00 0.00 0.00 0.00 0.00 0.00 0.00 0.00 0.00 0.00 0.00 0.00 0.00 0.00 0.00 0.00 0.00 0.00 0.00 0.00 0.00 0.00 0.00 0.00 0.00
0.00 0.00 0.00 0.00 0.00 0.00 0.00 0.00 0.00 0.00 0.00 0.00 0.00 0.00 0.00 0.00 0.00 0.00 0.00 0.00 0.00 0.00 0.00 0.00 0.00 0.00 0.00 0.00 0.00 0.00 0.00 0.00 0.00 0.00 0.00 0.00 0.00 0.00 0.00 0.00 0.00 0.00 0.00 0.00 0.00 0.00 0.00
0.00 0.00 0.00 0.00 0.00 0.00 0.00 0.00 0.00 0.00 0.00 0.00 0.00 0.00 0.00 0.00 0.00 0.00 0.00 0.00 0.00 0.00 0.00 0.00 0.00 0.00 0.00 0.00 0.00 0.00 0.00 0.00 0.00 0.00 0.00 0.00 0.00 0.00 0.00 0.00 0.00 0.00 0.00 0.00 0.00 0.00 0.00
0.00 0.00 0.00 0.00 0.00 0.00 0.00 0.00 0.00 0.00 0.00 0.00 0.00 0.00 0.00 0.00 0.00 0.00 0.00 0.00 0.00 0.00 0.00 0.00 0.00 0.00 0.00 0.00 0.00 0.00 0.00 0.00 0.00 0.00 0.00 0.00 0.00 0.00 0.00 0.00 0.00 0.00 0.00 0.00 0.00 0.00 0.00
0.01 0.02 0.00 0.00 0.00 0.00 0.00 0.00 0.00 0.00 0.00 0.00 0.00 0.00 0.00 0.00 0.00 0.00 0.00 0.00 0.00 0.00 0.00 0.00 0.00 0.00 0.00 0.00 0.00 0.00 0.00 0.00 0.00 0.00 0.00 0.00 0.00 0.00 0.00 0.00 0.00 0.00 0.00 0.00 0.00 0.00 0.00
0.00 0.02 0.00 0.00 0.00 0.00 0.00 0.00 0.00 0.00 0.00 0.00 0.00 0.00 0.00 0.00 0.00 0.00 0.00 0.00 0.00 0.00 0.00 0.00 0.00 0.00 0.00 0.00 0.00 0.00 0.00 0.00 0.00 0.00 0.00 0.00 0.00 0.00 0.00 0.00 0.00 0.00 0.00 0.00 0.00 0.00 0.00
0.00 0.01 0.00 0.00 0.00 0.00 0.00 0.00 0.00 0.00 0.00 0.00 0.00 0.00 0.00 0.00 0.00 0.00 0.00 0.00 0.00 0.00 0.00 0.00 0.00 0.00 0.00 0.00 0.00 0.00 0.00 0.00 0.00 0.00 0.00 0.00 0.00 0.00 0.00 0.00 0.00 0.00 0.00 0.00 0.00 0.00 0.00
0.01 0.00 0.00 0.00 0.00 0.00 0.00 0.01 0.00 0.00 0.00 0.00 0.00 0.00 0.00 0.00 0.00 0.00 0.00 0.00 0.00 0.00 0.00 0.00 0.00 0.00 0.00 0.00 0.00 0.00 0.00 0.00 0.00 0.00 0.00 0.00 0.00 0.00 0.00 0.00 0.00 0.00 0.00 0.00 0.00 0.00 0.00
0.01 0.00 0.00 0.00 0.00 0.00 0.00 0.01 0.00 0.00 0.00 0.00 0.00 0.00 0.00 0.00 0.00 0.00 0.00 0.00 0.00 0.00 0.00 0.00 0.00 0.00 0.00 0.00 0.00 0.00 0.00 0.00 0.00 0.00 0.00 0.00 0.00 0.00 0.00 0.00 0.00 0.00 0.00 0.00 0.00 0.00 0.00
0.01 0.00 0.00 0.00 0.00 0.00 0.00 0.00 0.00 0.00 0.00 0.00 0.00 0.00 0.00 0.00 0.00 0.00 0.00 0.00 0.00 0.00 0.00 0.00 0.00 0.00 0.00 0.00 0.00 0.00 0.00 0.00 0.00 0.00 0.00 0.00 0.00 0.00 0.00 0.00 0.00 0.00 0.00 0.00 0.00 0.00 0.01
0.00 0.00 0.00 0.00 0.00 0.00 0.00 0.00 0.00 0.00 0.00 0.00 0.00 0.00 0.00 0.00 0.00 0.00 0.00 0.00 0.00 0.00 0.00 0.00 0.00 0.00 0.00 0.00 0.00 0.00 0.00 0.00 0.00 0.00 0.00 0.00 0.00 0.00 0.00 0.00 0.00 0.00 0.00 0.00 0.00 0.00 0.01
0.00 0.00 0.00 0.00 0.00 0.00 0.00 0.00 0.00 0.00 0.00 0.00 0.00 0.00 0.00 0.00 0.00 0.00 0.00 0.00 0.00 0.00 0.00 0.00 0.00 0.00 0.00 0.00 0.00 0.00 0.00 0.00 0.00 0.01 0.00 0.00 0.00 0.00 0.00 0.00 0.00 0.00 0.00 0.00 0.00 0.00 0.01
0.00 0.00 0.00 0.00 0.00 0.00 0.00 0.00 0.00 0.00 0.00 0.00 0.00 0.00 0.00 0.00 0.00 0.00 0.00 0.00 0.00 0.00 0.00 0.00 0.00 0.00 0.00 0.00 0.00 0.00 0.00 0.00 0.00 0.01 0.00 0.00 0.00 0.00 0.00 0.00 0.00 0.00 0.00 0.00 0.00 0.00 0.00
MSLP
1020.65 1020.32 1020.07 1019.77 1019.50 1019.22 1019.01 1018.70 1018.46 1018.19 1017.78 1017.39 1017.03 1016.74 1016.26 1015.90 1015.41 1014.98 1014.63 1014.26 1013.93 1013.55 1012.96 1012.32 1011.84 1011.37 1010.63 1009.76 1007.58 1006.11 1006.30 1006.40 1006.51 1006.88 1006.88 1007.11 1007.29 1007.70 1007.97 1007.98 1008.27 1008.08 1006.99 1005.96 1005.46 1005.57 1005.61
1020.86 1020.59 1020.24 1019.95 1019.78 1019.51 1019.09 1018.74 1018.44 1018.20 1017.93 1017.46 1017.02 1016.67 1016.34 1015.85 1015.36 1014.83 1014.43 1014.13 1013.73 1013.36 1012.92 1012.31 1011.79 1011.42 1010.88 1008.92 1006.32 1006.05 1006.30 1006.80 1006.82 1006.63 1006.69 1007.12 1007.36 1007.50 1007.96 1008.14 1008.17 1007.38 1006.64 1006.00 1005.50 1005.54 1006.02
1021.09 1020.79 1020.44 1020.16 1019.87 1019.61 1019.27 1018.93 1018.57 1018.22 1017.96 1017.61 1017.10 1016.63 1016.29 1015.87 1015.36 1014.73 1014.22 1013.83 1013.38 1012.95 1012.69 1012.24 1011.87 1011.50 1010.54 1007.51 1006.49 1006.43 1006.36 1006.59 1006.54 1006.29 1006.49 1006.92 1007.24 1007.62 1007.85 1008.00 1007.80 1007.66 1007.09 1006.36 1006.40 1005.94 1006.34
1021.17 1020.97 1020.62 1020.28 1020.06 1019.67 1019.34 1019.01 1018.65 1018.32 1017.94 1017.64 1017.20 1016.68 1016.16 1015.80 1015.24 1014.66 1013.99 1013.35 1012.83 1012.43 1012.23 1012.04 1011.93 1011.53 1009.62 1006.57 1006.48 1006.49 1006.30 1006.24 1006.22 1006.13 1006.36 1006.54 1007.00 1007.28 1007.63 1007.62 1007.45 1007.70 1007.73 1007.55 1006.86 1006.47 1006.54
1021.34 1021.15 1020.85 1020.51 1020.17 1019.81 1019.46 1019.04 1018.62 1018.27 1017.97 1017.62 1017.19 1016.67 1016.06 1015.62 1015.14 1014.40 1013.73 1012.88 1012.12 1011.78 1011.77 1011.80 1011.89 1011.26 1008.77 1006.43 1006.30 1005.55 1005.91 1006.11 1005.98 1006.02 1006.05 1006.14 1006.64 1007.25 1007.74 1008.25 1008.77 1009.07 1008.98 1008.28 1007.36 1006.80 1006.98
1021.38 1021.11 1020.86 1020.60 1020.31 1019.93 1019.47 1019.08 1018.68 1018.30 1017.89 1017.50 1017.05 1016.63 1015.95 1015.40 1014.93 1014.34 1013.36 1012.31 1011.60 1011.53 1011.48 1011.48 1011.18 1010.99 1008.22 1006.70 1005.91 1005.47 1005.61 1005.83 1006.04 1006.12 1006.14 1006.49 1007.14 1007.62 1008.21 1008.56 1009.23 1009.36 1009.02 1008.48 1007.82 1007.32 1007.18
1021.36 1021.06 1020.82 1020.60 1020.35 1020.03 1019.63 1019.17 1018.75 1018.33 1017.89 1017.39 1016.90 1016.40 1015.85 1015.15 1014.68 1014.33 1013.53 1012.23 1012.18 1011.90 1011.45 1010.39 1009.84 1009.18 1007.73 1006.62 1005.75 1005.41 1005.47 1005.75 1006.03 1006.56 1007.10 1007.40 1008.08 1008.16 1008.23 1008.54 1008.66 1008.94 1008.82 1008.58 1007.77 1006.85 1007.00
1021.49 1021.17 1020.88 1020.59 1020.33 1020.04 1019.66 1019.16 1018.63 1018.16 1017.76 1017.32 1016.82 1016.30 1015.73 1015.03 1014.30 1013.93 1014.07 1013.31 1012.55 1012.90 1011.50 1009.32 1009.12 1008.56 1007.61 1007.22 1007.01 1005.83 1005.53 1006.10 1006.46 1007.13 1007.68 1008.22 1008.13 1007.78 1008.05 1008.23 1008.33 1008.48 1008.36 1008.13 1007.59 1006.99 1007.34
1021.51 1021.16 1020.86 1020.55 1020.25 1019.91 1019.58 1019.16 1018.60 1018.06 1017.61 1017.17 1016.66 1016.09 1015.44 1014.69 1013.96 1013.72 1013.72 1012.63 1011.92 1012.01 1011.66 1008.91 1008.08 1007.54 1007.07 1007.14 1006.88 1005.98 1005.85 1006.20 1006.76 1007.47 1007.94 1008.44 1007.38 1007.35 1007.61 1007.62 1007.72 1007.59 1007.64 1007.38 1007.30 1007.12 1007.49
1021.36 1021.09 1020.76 1020.41 1020.04 1019.71 1019.38 1018.98 1018.52 1017.94 1017.44 1016.96 1016.47 1015.95 1015.39 1014.44 1013.99 1014.27 1013.10 1011.79 1011.73 1011.65 1011.37 1008.63 1007.50 1006.07 1006.30 1006.40 1006.27 1005.36 1005.47 1006.29 1006.99 1007.43 1008.20 1008.23 1007.27 1007.14 1007.18 1007.24 1007.25 1007.01 1006.55 1006.87 1007.12 1007.81 1008.35
1021.24 1020.87 1020.54 1020.22 1019.88 1019.53 1019.16 1018.73 1018.28 1017.78 1017.25 1016.71 1016.20 1015.85 1015.52 1015.24 1015.02 1014.15 1012.37 1011.76 1011.14 1011.17 1010.25 1007.21 1006.40 1005.08 1005.43 1005.77 1005.39 1005.30 1005.23 1005.91 1006.80 1007.39 1008.12 1007.90 1007.31 1007.10 1006.99 1006.65 1006.82 1006.61 1006.47 1006.78 1007.29 1008.40 1008.97
1021.26 1020.86 1020.37 1019.99 1019.63 1019.34 1018.95 1018.47 1017.98 1017.52 1016.97 1016.45 1015.88 1015.64 1015.49 1015.22 1015.06 1012.75 1011.99 1011.63 1011.23 1011.20 1008.69 1006.11 1005.29 1005.22 1005.55 1005.50 1005.45 1005.46 1005.41 1005.82 1006.55 1007.56 1007.98 1007.95 1007.37 1007.05 1006.53 1006.33 1006.62 1006.48 1006.73 1007.60 1008.68 1009.64 1010.56
1021.21 1020.82 1020.37 1019.87 1019.47 1019.10 1018.75 1018.24 1017.76 1017.23 1016.61 1016.00 1015.43 1015.12 1015.44 1015.20 1013.55 1012.40 1012.02 1011.55 1011.84 1010.40 1007.63 1006.20 1005.44 1005.33 1005.47 1005.78 1005.82 1005.80 1006.16 1006.71 1007.36 1008.46 1008.73 1008.28 1007.54 1006.97 1006.63 1006.49 1006.12 1006.52 1007.83 1009.09 1010.55 1011.47 1011.63
1021.13 1020.74 1020.25 1019.74 1019.35 1018.88 1018.49 1018.07 1017.62 1017.04 1016.35 1015.52 1014.75 1014.28 1013.76 1013.41 1012.80 1012.52 1012.34 1012.22 1011.72 1009.19 1007.85 1006.15 1005.47 1005.60 1005.79 1005.93 1006.32 1006.38 1006.72 1007.51 1007.81 1008.29 1009.38 1009.34 1007.99 1006.75 1006.31 1006.18 1006.42 1006.92 1007.87 1009.29 1010.87 1012.38 1012.31
1020.92 1020.58 1020.15 1019.67 1019.19 1018.73 1018.31 1017.94 1017.43 1016.82 1016.06 1015.12 1014.16 1013.77 1013.59 1011.87 1012.41 1012.78 1012.85 1012.86 1010.99 1009.33 1007.67 1006.62 1005.74 1005.90 1006.03 1005.97 1006.20 1006.82 1007.24 1007.69 1007.71 1008.02 1008.76 1009.29 1008.27 1006.72 1006.11 1006.00 1006.41 1007.18 1008.19 1008.58 1010.51 1012.24 1012.64
1020.76 1020.39 1020.01 1019.60 1019.14 1018.70 1018.27 1017.78 1017.19 1016.50 1015.69 1014.87 1014.45 1014.16 1012.79 1011.45 1011.94 1012.49 1012.97 1012.39 1010.94 1009.18 1007.79 1006.84 1006.31 1005.89 1006.28 1006.28 1006.50 1006.63 1007.24 1006.45 1006.95 1007.08 1007.24 1008.59 1008.40 1006.92 1006.15 1006.00 1006.53 1006.88 1008.03 1009.36 1010.77 1012.56 1013.33
1020.66 1020.30 1019.89 1019.46 1019.07 1018.68 1018.18 1017.63 1017.07 1016.36 1015.34 1014.53 1014.61 1013.91 1011.52 1011.29 1011.77 1012.55 1012.99 1012.34 1010.52 1008.99 1007.97 1007.38 1006.78 1006.28 1006.00 1005.96 1006.07 1006.49 1006.46 1005.57 1005.40 1006.18 1006.80 1008.09 1008.41 1007.66 1006.60 1006.44 1006.55 1007.28 1008.34 1009.80 1011.19 1012.27 1013.03
1020.43 1020.11 1019.73 1019.30 1018.93 1018.53 1018.07 1017.56 1017.03 1016.43 1015.42 1014.74 1015.02 1013.82 1011.73 1011.88 1012.39 1013.19 1012.87 1011.60 1010.28 1009.07 1008.37 1007.66 1007.06 1006.55 1006.11 1005.84 1005.76 1005.81 1005.52 1004.86 1004.36 1005.14 1006.67 1007.06 1007.95 1008.13 1007.67 1006.38 1006.29 1006.66 1007.77 1009.28 1010.81 1012.62 1012.82
1020.25 1019.85 1019.48 1019.12 1018.74 1018.38 1017.94 1017.49 1017.06 1016.64 1016.29 1016.36 1015.90 1014.37 1012.09 1011.85 1012.53 1012.96 1012.21 1011.23 1010.17 1009.18 1008.42 1008.08 1007.25 1006.43 1006.09 1005.96 1005.89 1004.94 1004.31 1003.10 1003.49 1004.24 1004.90 1006.24 1007.45 1008.42 1007.55 1007.06 1006.46 1006.55 1007.20 1008.03 1009.69 1010.86 1012.09
1020.06 1019.59 1019.25 1018.91 1018.58 1018.23 1017.86 1017.42 1016.97 1016.60 1016.41 1016.58 1016.26 1014.88 1013.24 1012.70 1012.55 1012.21 1011.94 1011.11 1010.14 1008.86 1008.42 1007.75 1007.10 1006.55 1006.35 1005.94 1005.40 1004.74 1003.83 1002.72 1002.60 1002.82 1003.66 1004.88 1007.09 1007.52 1007.45 1006.83 1006.21 1006.46 1006.75 1007.56 1008.72 1010.10 1011.02
1019.89 1019.39 1019.05 1018.75 1018.43 1018.09 1017.71 1017.28 1016.83 1016.45 1016.18 1016.41 1016.29 1015.16 1013.88 1013.20 1012.71 1012.21 1011.67 1011.01 1010.25 1009.46 1008.18 1007.38 1006.85 1006.45 1006.19 1006.01 1005.29 1004.71 1003.78 1002.97 1002.72 1003.18 1003.90 1004.48 1006.43 1006.90 1006.40 1006.05 1005.85 1005.96 1006.39 1007.06 1007.95 1008.36 1009.26
1019.73 1019.28 1018.91 1018.58 1018.27 1017.96 1017.59 1017.19 1016.73 1016.30 1016.03 1016.33 1016.25 1015.67 1014.29 1013.47 1012.61 1012.00 1011.48 1010.76 1009.87 1009.14 1008.73 1007.28 1006.75 1005.89 1006.07 1005.76 1004.81 1004.34 1003.58 1002.98 1002.97 1003.16 1004.17 1004.84 1006.01 1006.62 1006.90 1006.36 1005.88 1006.42 1006.52 1006.79 1007.67 1008.01 1008.35
1019.61 1019.16 1018.75 1018.43 1018.16 1017.83 1017.48 1017.06 1016.67 1016.33 1016.07 1016.55 1016.30 1015.61 1015.11 1013.78 1012.90 1012.08 1011.44 1010.59 1009.41 1008.78 1007.32 1006.37 1006.00 1005.80 1005.59 1004.49 1003.85 1003.33 1002.84 1002.83 1002.88 1003.39 1004.40 1005.23 1006.27 1007.38 1007.61 1006.73 1006.68 1007.27 1007.76 1008.02 1008.61 1008.84 1008.46
1019.47 1019.10 1018.73 1018.37 1018.04 1017.72 1017.37 1016.95 1016.67 1016.49 1016.53 1016.99 1016.78 1016.45 1015.79 1014.63 1013.33 1012.23 1011.17 1010.46 1009.42 1008.68 1007.88 1006.18 1005.61 1005.81 1004.30 1002.97 1002.92 1003.32 1002.98 1002.89 1003.02 1003.28 1003.84 1005.24 1006.80 1007.39 1008.26 1007.91 1008.24 1008.65 1008.37 1008.73 1008.91 1009.54 1009.13
1019.34 1018.96 1018.60 1018.29 1017.97 1017.65 1017.29 1016.92 1016.68 1016.55 1016.52 1016.84 1016.66 1016.69 1016.21 1015.18 1013.79 1012.35 1011.35 1010.36 1009.19 1008.52 1007.91 1006.67 1005.01 1004.62 1004.29 1004.10 1004.35 1004.45 1004.29 1003.84 1003.37 1003.68 1004.30 1005.02 1006.54 1008.49 1009.17 1009.83 1009.69 1009.13 1008.69 1008.83 1009.21 1010.63 1010.18
1019.21 1018.84 1018.47 1018.17 1017.88 1017.56 1017.25 1016.95 1016.66 1016.47 1016.37 1016.45 1016.41 1016.25 1016.24 1015.64 1014.10 1012.86 1011.75 1010.81 1010.23 1009.41 1008.18 1006.83 1005.35 1004.57 1004.26 1004.69 1005.20 1006.07 1005.90 1005.22 1004.81 1004.64 1005.27 1005.74 1006.33 1007.87 1010.16 1010.69 1010.53 1009.39 1009.17 1009.26 1009.69 1011.49 1011.53
1019.05 1018.69 1018.35 1018.02 1017.74 1017.43 1017.11 1016.82 1016.57 1016.33 1016.20 1016.31 1016.23 1016.02 1016.08 1015.72 1013.79 1012.86 1012.02 1011.39 1010.69 1010.18 1009.70 1008.57 1007.42 1006.00 1005.23 1006.07 1006.83 1007.16 1006.82 1006.14 1006.45 1006.82 1007.52 1008.00 1008.63 1009.77 1010.80 1011.32 1010.98 1010.45 1010.15 1009.80 1010.79 1012.75 1012.33
1018.89 1018.52 1018.13 1017.84 1017.56 1017.24 1016.92 1016.66 1016.38 1016.15 1016.01 1016.05 1015.87 1015.57 1015.72 1015.53 1013.85 1012.50 1011.77 1011.39 1011.03 1010.59 1010.43 1009.04 1008.29 1007.70 1007.21 1007.40 1007.82 1007.86 1007.53 1007.62 1008.14 1008.77 1009.13 1009.83 1010.62 1011.58 1012.09 1012.69 1012.61 1011.47 1010.76 1011.00 1012.11 1012.65 1012.94
1018.65 1018.27 1017.90 1017.60 1017.31 1017.01 1016.71 1016.44 1016.17 1015.97 1015.81 1015.70 1015.93 1015.07 1015.02 1015.36 1013.66 1012.21 1011.08 1010.40 1010.43 1009.93 1010.25 1009.67 1009.56 1009.07 1008.64 1008.69 1008.68 1008.63 1008.81 1009.18 1009.92 1010.71 1010.37 1011.27 1011.65 1012.03 1013.35 1014.46 1014.17 1012.99 1012.69 1012.92 1013.26 1013.42 1013.61
Thickness
5707 5711 5715 5719 5723 5728 5732 5737 5741 5745 5749 5754 5759 5763 5768 5772 5777 5782 5787 5792 5796 5800 5807 5813 5817 5822 5829 5824 5832 5868 5867 5869 5869 5864 5854 5844 5836 5835 5823 5832 5831 5822 5839 5854 5855 5853 5851
5702 5706 5710 5714 5717 5722 5728 5734 5738 5743 5747 5752 5757 5762 5767 5772 5777 5783 5788 5793 5798 5803 5808 5814 5819 5822 5823 5814 5867 5870 5870 5866 5865 5863 5855 5850 5843 5847 5833 5830 5823 5839 5847 5852 5858 5850 5850
5697 5701 5705 5709 5713 5717 5722 5728 5734 5739 5744 5749 5754 5760 5765 5770 5776 5783 5789 5795 5801 5807 5810 5815 5819 5823 5821 5832 5867 5868 5871 5868 5871 5868 5854 5858 5857 5846 5841 5829 5843 5840 5830 5842 5843 5849 5844
5691 5695 5700 5704 5708 5713 5717 5722 5728 5734 5740 5745 5751 5757 5763 5768 5775 5782 5790 5798 5805 5810 5814 5816 5818 5821 5818 5866 5869 5867 5870 5869 5876 5874 5867 5868 5865 5853 5843 5852 5843 5827 5824 5806 5836 5845 5850
5684 5688 5692 5697 5702 5707 5712 5718 5724 5729 5735 5741 5747 5754 5761 5767 5772 5781 5790 5799 5808 5814 5816 5817 5817 5819 5820 5865 5857 5874 5874 5862 5870 5872 5872 5875 5864 5847 5842 5819 5805 5805 5789 5805 5820 5844 5842
5678 5682 5686 5690 5695 5701 5707 5713 5718 5723 5729 5736 5743 5750 5758 5765 5771 5778 5789 5801 5809 5814 5817 5819 5822 5812 5838 5844 5862 5872 5876 5872 5861 5863 5857 5853 5838 5830 5821 5809 5781 5792 5798 5809 5813 5836 5840
5671 5675 5679 5683 5688 5693 5700 5706 5712 5718 5724 5731 5738 5746 5754 5762 5769 5774 5784 5797 5797 5799 5809 5811 5818 5822 5837 5856 5869 5866 5873 5865 5862 5849 5826 5836 5815 5806 5820 5822 5823 5816 5809 5806 5826 5846 5838
5663 5667 5671 5676 5681 5686 5691 5699 5706 5713 5720 5726 5733 5741 5748 5758 5767 5773 5775 5786 5791 5792 5787 5821 5822 5826 5838 5847 5832 5851 5871 5845 5840 5819 5829 5815 5804 5829 5833 5828 5822 5819 5809 5810 5829 5845 5836
5657 5661 5664 5668 5673 5678 5684 5690 5698 5706 5713 5720 5728 5736 5745 5755 5764 5771 5775 5785 5795 5796 5780 5809 5823 5826 5835 5840 5827 5836 5853 5843 5832 5819 5819 5801 5823 5840 5834 5826 5820 5822 5809 5816 5820 5836 5837
5652 5655 5659 5663 5667 5672 5677 5683 5691 5699 5707 5714 5723 5731 5739 5751 5761 5760 5772 5788 5791 5792 5756 5790 5810 5826 5836 5839 5827 5855 5857 5842 5829 5813 5814 5812 5834 5833 5827 5820 5827 5808 5839 5837 5833 5815 5791
5647 5651 5654 5658 5662 5666 5671 5677 5684 5691 5700 5708 5717 5723 5730 5737 5742 5755 5775 5782 5789 5787 5733 5805 5809 5847 5838 5829 5837 5839 5856 5841 5816 5818 5815 5806 5825 5823 5819 5823 5833 5817 5843 5832 5834 5808 5807
5640 5644 5649 5653 5657 5661 5666 5672 5678 5685 5693 5701 5710 5717 5722 5729 5735 5757 5768 5776 5779 5742 5734 5799 5814 5811 5812 5822 5827 5834 5837 5846 5836 5818 5819 5811 5834 5832 5828 5837 5838 5843 5835 5820 5802 5790 5767
5634 5637 5642 5647 5652 5656 5661 5667 5673 5680 5688 5696 5705 5712 5714 5720 5740 5752 5759 5765 5728 5721 5785 5791 5793 5803 5802 5798 5810 5817 5810 5805 5792 5777 5782 5799 5809 5827 5837 5819 5834 5829 5800 5756 5759 5752 5754
5627 5630 5635 5641 5645 5650 5655 5661 5667 5674 5683 5692 5703 5710 5719 5727 5737 5742 5747 5735 5718 5753 5756 5787 5795 5790 5787 5794 5797 5802 5795 5786 5802 5794 5764 5766 5764 5813 5833 5821 5813 5813 5802 5760 5746 5735 5758
5620 5624 5628 5633 5638 5644 5649 5654 5660 5668 5677 5688 5701 5707 5712 5731 5730 5730 5726 5702 5721 5739 5768 5770 5784 5777 5780 5789 5792 5792 5783 5779 5793 5795 5775 5758 5771 5818 5830 5833 5826 5807 5789 5811 5766 5764 5752
5611 5615 5620 5624 5629 5635 5640 5647 5654 5663 5672 5682 5689 5694 5706 5725 5724 5721 5706 5704 5723 5746 5762 5768 5763 5776 5759 5771 5777 5777 5769 5797 5795 5803 5809 5786 5769 5804 5820 5829 5822 5812 5811 5782 5763 5741 5741
5602 5606 5610 5615 5620 5625 5631 5638 5646 5655 5667 5677 5681 5693 5714 5716 5716 5704 5690 5696 5724 5746 5757 5752 5755 5760 5770 5771 5770 5764 5776 5799 5810 5801 5803 5783 5774 5784 5810 5799 5796 5796 5786 5773 5767 5754 5733
5594 5597 5601 5606 5611 5616 5622 5629 5636 5645 5657 5666 5664 5684 5702 5703 5688 5672 5684 5703 5728 5736 5744 5750 5754 5755 5762 5771 5772 5767 5773 5789 5814 5803 5783 5792 5769 5759 5774 5809 5817 5808 5793 5782 5760 5753 5740
5584 5587 5591 5596 5602 5607 5613 5619 5626 5633 5639 5643 5643 5659 5689 5694 5674 5674 5689 5707 5719 5725 5730 5736 5743 5757 5763 5762 5759 5779 5785 5819 5813 5804 5791 5792 5761 5744 5756 5780 5802 5800 5797 5792 5772 5762 5744
5575 5579 5582 5585 5589 5595 5602 5608 5616 5623 5628 5630 5636 5661 5669 5676 5673 5681 5687 5694 5703 5725 5723 5734 5743 5752 5754 5755 5762 5773 5791 5816 5817 5819 5816 5808 5759 5762 5744 5768 5792 5794 5799 5794 5786 5761 5754
5566 5569 5572 5575 5578 5582 5588 5596 5604 5612 5618 5621 5622 5646 5657 5657 5667 5675 5684 5688 5694 5700 5722 5732 5738 5741 5745 5745 5758 5762 5783 5798 5812 5811 5804 5802 5768 5770 5781 5794 5798 5803 5802 5796 5787 5791 5777
5558 5561 5564 5567 5570 5573 5578 5584 5592 5600 5608 5609 5620 5631 5642 5648 5658 5669 5666 5679 5690 5698 5706 5719 5731 5748 5737 5738 5757 5764 5782 5791 5794 5804 5796 5789 5771 5774 5779 5786 5796 5785 5785 5792 5787 5793 5796
5549 5553 5557 5560 5563 5567 5571 5576 5582 5588 5596 5595 5603 5615 5625 5639 5648 5657 5661 5677 5694 5703 5720 5737 5741 5739 5736 5758 5775 5783 5795 5798 5805 5801 5785 5781 5764 5760 5752 5784 5780 5761 5768 5773 5773 5778 5787
5540 5545 5549 5553 5556 5560 5564 5569 5573 5577 5582 5583 5588 5594 5609 5627 5638 5649 5664 5675 5689 5698 5707 5731 5738 5731 5762 5786 5788 5787 5792 5795 5796 5802 5798 5774 5759 5756 5747 5763 5728 5758 5778 5777 5771 5773 5782
5535 5538 5542 5546 5549 5553 5557 5562 5566 5569 5572 5575 5579 5584 5593 5609 5625 5642 5654 5668 5682 5690 5702 5719 5742 5755 5758 5766 5747 5742 5746 5774 5792 5792 5790 5789 5764 5737 5736 5715 5743 5759 5771 5770 5765 5754 5774
5531 5533 5536 5539 5542 5546 5550 5555 5559 5563 5566 5569 5573 5578 5581 5593 5612 5628 5640 5654 5659 5668 5687 5712 5733 5747 5756 5740 5735 5721 5723 5744 5761 5774 5773 5778 5774 5760 5729 5726 5711 5747 5770 5779 5776 5729 5763
5529 5530 5531 5533 5536 5540 5544 5548 5553 5557 5561 5564 5568 5574 5575 5584 5603 5621 5626 5634 5652 5659 5664 5681 5703 5718 5740 5722 5712 5713 5725 5748 5736 5739 5740 5738 5741 5733 5722 5716 5728 5751 5755 5769 5741 5727 5758
5526 5526 5528 5529 5531 5534 5538 5541 5546 5551 5556 5560 5565 5571 5574 5577 5592 5616 5628 5632 5639 5648 5654 5675 5689 5699 5708 5706 5708 5710 5720 5727 5721 5729 5731 5722 5719 5712 5711 5709 5715 5742 5751 5748 5742 5747 5748
5524 5524 5525 5526 5528 5530 5534 5537 5541 5545 5550 5556 5558 5568 5572 5573 5592 5612 5627 5638 5642 5653 5653 5663 5673 5683 5693 5695 5700 5705 5710 5708 5702 5706 5724 5705 5712 5708 5706 5694 5714 5725 5730 5736 5738 5738 5742